EW3525 Weather Reports


time (UTC)temp
C
wind
direction
speed
KPH
gust
KPH
rain 1hr
cm
rain 24hr
cm
rain mn
cm
humidity
%
barometer
mb
20260507103508 15 340 0.0 4.8 0.00 0.00 0.00 47 1015.9
20260507103009 16 107 0.0 3.2 0.00 0.00 0.00 50 1015.9
20260507102512 16 26 0.0 3.2 0.00 0.00 0.00 51 1016.0
20260507102008 15 76 0.0 3.2 0.00 0.00 0.00 46 1016.0
20260507101507 16 30 0.0 4.8 0.00 0.00 0.00 46 1016.0
20260507101004 16 355 1.6 4.8 0.00 0.00 0.00 58 1016.1
20260507100503 15 21 0.0 3.2 0.00 0.00 0.00 55 1016.0
20260507100003 15 350 0.0 4.8 0.00 0.00 0.00 61 1016.0
20260507095501 15 260 0.0 6.4 0.00 0.00 0.00 55 1016.1
20260507095101 15 10 1.6 6.4 0.00 0.00 0.00 60 1016.1
20260507094558 15 34 1.6 6.4 0.00 0.00 0.00 61 1016.1
20260507094057 13 204 0.0 3.2 0.00 0.00 0.00 62 1016.1
20260507093557 14 360 0.0 6.4 0.00 0.00 0.00 59 1016.1
20260507093058 15 162 0.0 6.4 0.00 0.00 0.00 67 1016.1
20260507092554 13 109 0.0 6.4 0.00 0.00 0.00 64 1016.0
20260507092053 14 339 1.6 6.4 0.00 0.00 0.00 67 1016.1
20260507091554 14 44 1.6 3.2 0.00 0.00 0.00 68 1016.2
20260507091051 13 33 0.0 3.2 0.00 0.00 0.00 67 1016.2
20260507090549 13 349 0.0 3.2 0.00 0.00 0.00 73 1016.3
20260507090049 13 65 0.0 3.2 0.00 0.00 0.00 73 1016.2
20260507085548 12 355 0.0 3.2 0.00 0.00 0.00 75 1016.2
20260507085046 12 32 0.0 6.4 0.00 0.00 0.00 75 1016.3
20260507084551 12 10 1.6 6.4 0.00 0.00 0.00 75 1016.3
20260507084042 12 257 0.0 3.2 0.00 0.00 0.00 76 1016.3
20260507083541 11 163 0.0 4.8 0.00 0.00 0.00 77 1016.3
20260507083047 11 213 0.0 3.2 0.00 0.00 0.00 81 1016.3
20260507082543 11 22 0.0 3.2 0.00 0.00 0.00 81 1016.4
20260507082042 10 93 0.0 4.8 0.00 0.00 0.00 84 1016.4
20260507081535 10 21 0.0 4.8 0.00 0.00 0.00 84 1016.3
20260507081036 9 360 0.0 4.8 0.00 0.00 0.00 87 1016.4
20260507080533 8 9 1.6 3.2 0.00 0.00 0.00 88 1016.4
20260507080032 8 166 0.0 3.2 0.00 0.00 0.00 88 1016.4
20260507075532 8 20 0.0 3.2 0.00 0.00 0.00 88 1016.3
20260507075029 7 57 0.0 3.2 0.00 0.00 0.00 90 1016.3
20260507074529 7 360 0.0 4.8 0.00 0.00 0.00 90 1016.3
20260507074026 7 347 1.6 4.8 0.00 0.00 0.00 91 1016.3
20260507073525 7 355 0.0 3.2 0.00 0.00 0.00 91 1016.3
20260507073024 6 355 0.0 4.8 0.00 0.00 0.00 92 1016.3
20260507072523 6 12 0.0 4.8 0.00 0.00 0.00 93 1016.3
20260507072021 6 178 0.0 3.2 0.00 0.00 0.00 93 1016.3
20260507071519 6 15 0.0 3.2 0.00 0.00 0.00 94 1016.2
20260507071025 5 22 0.0 3.2 0.00 0.00 0.00 94 1016.2
20260507070517 5 15 0.0 3.2 0.00 0.00 0.00 94 1016.2
20260507070016 5 350 0.0 3.2 0.00 0.00 0.00 94 1016.2
20260507065519 5 27 0.0 3.2 0.00 0.00 0.00 94 1016.2
20260507065014 4 26 0.0 3.2 0.00 0.00 0.00 94 1016.2
20260507064514 4 30 0.0 3.2 0.00 0.00 0.00 94 1016.3
20260507064014 4 24 0.0 3.2 0.00 0.00 0.00 94 1016.3
20260507063510 3 14 0.0 3.2 0.00 0.00 0.00 94 1016.3
20260507063012 3 15 0.0 3.2 0.00 0.00 0.00 94 1016.2
20260507062510 3 32 0.0 3.2 0.00 0.00 0.00 94 1016.2
20260507062009 3 30 0.0 3.2 0.00 0.00 0.00 94 1016.2
20260507061509 3 34 0.0 3.2 0.00 0.00 0.00 94 1016.2
20260507061009 3 33 0.0 3.2 0.00 0.00 0.00 94 1016.1
20260507060507 2 35 0.0 3.2 0.00 0.00 0.00 94 1016.1
20260507060007 2 42 0.0 3.2 0.00 0.00 0.00 94 1016.1
20260507055507 2 42 0.0 0.0 0.00 0.00 0.00 94 1016.0
20260507055005 2 42 0.0 3.2 0.00 0.00 0.00 94 1016.0
20260507054506 2 42 0.0 3.2 0.00 0.00 0.00 94 1016.0
20260507054004 2 42 0.0 0.0 0.00 0.00 0.00 94 1016.0
20260507053504 2 42 0.0 0.0 0.00 0.00 0.00 94 1015.9
20260507053003 1 42 0.0 0.0 0.00 0.00 0.00 93 1015.9
20260507052501 1 42 0.0 0.0 0.00 0.00 0.00 93 1015.8
20260507052002 1 42 0.0 3.2 0.00 0.00 0.00 93 1015.7
20260507051502 1 42 0.0 3.2 0.00 0.00 0.00 93 1015.8
20260507051001 1 42 0.0 3.2 0.00 0.00 0.00 93 1015.8
20260507050603 1 42 0.0 3.2 0.00 0.00 0.00 93 1015.7
20260507050100 1 42 0.0 3.2 0.00 0.00 0.00 93 1015.7
20260507045600 1 42 0.0 0.0 0.00 0.00 0.00 93 1015.7
20260507045059 1 42 0.0 0.0 0.00 0.00 0.00 93 1015.6
20260507044616 1 42 0.0 3.2 0.00 0.00 0.00 93 1015.6
20260507044058 1 42 0.0 1.6 0.00 0.00 0.00 93 1015.6
20260507043556 1 42 0.0 0.0 0.00 0.00 0.00 93 1015.6
20260507043058 1 42 0.0 0.0 0.00 0.00 0.00 93 1015.6
20260507042555 1 42 0.0 0.0 0.00 0.00 0.00 93 1015.6
20260507042055 1 42 0.0 0.0 0.00 0.00 0.00 93 1015.6
20260507041601 1 42 0.0 0.0 0.00 0.00 0.00 92 1015.6
20260507041053 1 42 0.0 0.0 0.00 0.00 0.00 92 1015.6
20260507040553 1 42 0.0 0.0 0.00 0.00 0.00 93 1015.6
20260507040100 1 42 0.0 0.0 0.00 0.00 0.00 93 1015.6
20260507035551 1 42 0.0 0.0 0.00 0.00 0.00 92 1015.6
20260507035051 1 42 0.0 0.0 0.00 0.00 0.00 92 1015.6
20260507034556 1 42 0.0 0.0 0.00 0.00 0.00 93 1015.6
20260507034049 1 42 0.0 0.0 0.00 0.00 0.00 93 1015.5
20260507033548 1 42 0.0 0.0 0.00 0.00 0.00 92 1015.5
20260507033048 1 42 0.0 0.0 0.00 0.00 0.00 92 1015.5
20260507032547 1 42 0.0 0.0 0.00 0.00 0.00 92 1015.5
20260507032047 1 42 0.0 0.0 0.00 0.00 0.00 93 1015.5
20260507031547 1 42 0.0 0.0 0.00 0.00 0.00 92 1015.6
20260507031047 1 42 0.0 0.0 0.00 0.00 0.00 92 1015.6
20260507030547 1 42 0.0 0.0 0.00 0.00 0.00 92 1015.6
20260507030052 1 42 0.0 0.0 0.00 0.00 0.00 92 1015.5
20260507025547 1 42 0.0 0.0 0.00 0.00 0.00 92 1015.5
20260507025047 1 42 0.0 0.0 0.00 0.00 0.00 92 1015.6
20260507024546 1 42 0.0 0.0 0.00 0.00 0.00 92 1015.5
20260507024045 1 42 0.0 0.0 0.00 0.00 0.00 92 1015.5
20260507023544 1 42 0.0 0.0 0.00 0.00 0.00 92 1015.5
20260507023044 1 42 0.0 0.0 0.00 0.00 0.00 92 1015.5
20260507022543 1 42 0.0 0.0 0.00 0.00 0.00 92 1015.5
20260507022044 1 42 0.0 0.0 0.00 0.00 0.00 92 1015.5
20260507021546 1 42 0.0 0.0 0.00 0.00 0.00 92 1015.5
20260507021042 2 42 0.0 0.0 0.00 0.00 0.00 91 1015.4
20260507020542 2 42 0.0 0.0 0.00 0.00 0.00 91 1015.5
20260507020042 2 42 0.0 0.0 0.00 0.00 0.00 91 1015.4
20260507015540 2 42 0.0 0.0 0.00 0.00 0.00 91 1015.4
20260507015039 2 42 0.0 0.0 0.00 0.00 0.00 91 1015.4
20260507014539 2 42 0.0 0.0 0.00 0.00 0.00 91 1015.3
20260507014038 2 42 0.0 0.0 0.00 0.00 0.00 91 1015.3
20260507013540 2 42 0.0 0.0 0.00 0.00 0.00 91 1015.2
20260507013039 2 42 0.0 0.0 0.00 0.00 0.00 91 1015.3
20260507012536 2 42 0.0 0.0 0.00 0.00 0.00 91 1015.3
20260507012036 2 42 0.0 0.0 0.00 0.00 0.00 91 1015.3
20260507011540 2 42 0.0 3.2 0.00 0.00 0.00 91 1015.4
20260507011035 3 42 0.0 0.0 0.00 0.00 0.00 91 1015.4
20260507010534 3 42 0.0 3.2 0.00 0.00 0.00 91 1015.3
20260507010034 3 42 0.0 3.2 0.00 0.00 0.00 91 1015.3
20260507005534 3 42 0.0 3.2 0.00 0.00 0.00 91 1015.3
20260507005133 3 42 0.0 3.2 0.00 0.00 0.00 91 1015.3
20260507004532 3 42 0.0 1.6 0.00 0.00 0.00 90 1015.4
20260507004031 3 42 0.0 1.6 0.00 0.00 0.00 90 1015.3
20260507003535 3 42 0.0 1.6 0.00 0.00 0.00 90 1015.3
20260507003031 3 42 0.0 3.2 0.00 0.00 0.00 90 1015.4
20260507002531 3 42 0.0 3.2 0.00 0.00 0.00 90 1015.4
20260507002031 3 42 0.0 3.2 0.00 0.00 0.00 90 1015.4
20260507001536 3 42 0.0 3.2 0.00 0.00 0.00 90 1015.4
20260507001030 3 42 0.0 0.0 0.00 0.00 0.00 90 1015.4
20260507000529 3 42 0.0 0.0 0.00 0.00 0.00 89 1015.4
20260507000028 3 42 0.0 0.0 0.00 0.00 0.00 89 1015.4
20260506235528 3 42 0.0 0.0 0.00 0.00 0.00 89 1015.4
20260506235027 3 42 0.0 0.0 0.00 0.00 0.00 89 1015.4
20260506234533 3 42 0.0 0.0 0.00 0.00 0.00 89 1015.3
20260506234026 3 42 0.0 0.0 0.00 0.00 0.00 89 1015.3
20260506233526 3 42 0.0 0.0 0.00 0.00 0.00 89 1015.3
20260506233026 3 42 0.0 0.0 0.00 0.00 0.00 88 1015.2
20260506232524 3 42 0.0 0.0 0.00 0.00 0.00 88 1015.2
20260506232024 3 42 0.0 0.0 0.00 0.00 0.00 88 1015.2
20260506231524 3 42 0.0 0.0 0.00 0.00 0.00 88 1015.2
20260506231022 3 42 0.0 0.0 0.00 0.00 0.00 87 1015.2
20260506230521 4 42 0.0 0.0 0.00 0.00 0.00 87 1015.1
20260506230021 4 42 0.0 0.0 0.00 0.00 0.00 87 1015.1
20260506225520 4 42 0.0 0.0 0.00 0.00 0.00 86 1015.1
20260506225019 4 42 0.0 0.0 0.00 0.00 0.00 87 1015.1
20260506224526 4 42 0.0 0.0 0.00 0.00 0.00 87 1015.1
20260506224018 4 42 0.0 0.0 0.00 0.00 0.00 86 1015.0
20260506223517 4 42 0.0 0.0 0.00 0.00 0.00 86 1015.1
20260506223016 4 42 0.0 0.0 0.00 0.00 0.00 86 1015.0
20260506222517 5 42 0.0 0.0 0.00 0.00 0.00 86 1015.0
20260506222015 5 42 0.0 0.0 0.00 0.00 0.00 85 1015.0
20260506221515 5 42 0.0 0.0 0.00 0.00 0.00 85 1015.0
20260506221013 5 42 0.0 0.0 0.00 0.00 0.00 84 1015.0
20260506220513 5 42 0.0 0.0 0.00 0.00 0.00 84 1014.9
20260506220013 5 42 0.0 0.0 0.00 0.00 0.00 84 1014.9
20260506215512 5 42 0.0 0.0 0.00 0.00 0.00 83 1014.9
20260506215111 5 42 0.0 0.0 0.00 0.00 0.00 83 1014.9
20260506214510 5 42 0.0 0.0 0.00 0.00 0.00 83 1014.8
20260506214010 5 42 0.0 0.0 0.00 0.00 0.00 83 1014.8
20260506213509 5 42 0.0 0.0 0.00 0.00 0.00 83 1014.9
20260506213016 6 42 0.0 0.0 0.00 0.00 0.00 82 1014.9
20260506212513 6 42 0.0 0.0 0.00 0.00 0.00 82 1014.8
20260506212007 6 42 0.0 0.0 0.00 0.00 0.00 82 1014.8
20260506211506 6 42 0.0 0.0 0.00 0.00 0.00 82 1014.8
20260506211008 6 42 0.0 0.0 0.00 0.00 0.00 82 1014.8
20260506210505 6 42 0.0 0.0 0.00 0.00 0.00 81 1014.7
20260506210004 6 42 0.0 0.0 0.00 0.00 0.00 80 1014.6
20260506205503 7 42 0.0 0.0 0.00 0.00 0.00 79 1014.6
20260506205001 7 42 0.0 0.0 0.00 0.00 0.00 79 1014.6
20260506204600 7 42 0.0 0.0 0.00 0.00 0.00 78 1014.5
20260506204059 7 42 0.0 0.0 0.00 0.00 0.00 77 1014.4
20260506203559 7 42 0.0 0.0 0.00 0.00 0.00 75 1014.4
20260506203143 7 42 0.0 3.2 0.00 0.00 0.00 74 1014.4
20260506202559 8 42 0.0 3.2 0.00 0.00 0.00 72 1014.4
20260506202058 8 42 0.0 3.2 0.00 0.00 0.00 71 1014.3
20260506201558 8 32 0.0 3.2 0.00 0.00 0.00 70 1014.3
20260506201101 9 43 0.0 6.4 0.00 0.00 0.00 69 1014.3
20260506200557 10 51 0.0 6.4 0.00 0.00 0.00 68 1014.2
20260506200057 10 55 0.0 3.2 0.00 0.00 0.00 67 1014.3
20260506195557 10 26 0.0 3.2 0.00 0.00 0.00 67 1014.2
20260506195058 10 21 0.0 3.2 0.00 0.00 0.00 68 1014.1
20260506194556 10 345 0.0 3.2 0.00 0.00 0.00 68 1014.1
20260506194054 10 40 0.0 3.2 0.00 0.00 0.00 67 1014.0
20260506193553 10 53 0.0 3.2 0.00 0.00 0.00 67 1014.0
20260506193053 10 42 0.0 3.2 0.00 0.00 0.00 67 1013.9
20260506192554 11 360 0.0 4.8 0.00 0.00 0.00 66 1013.9
20260506192052 11 13 0.0 3.2 0.00 0.00 0.00 67 1013.9
20260506191554 11 355 0.0 3.2 0.00 0.00 0.00 65 1013.9
20260506191053 11 59 0.0 3.2 0.00 0.00 0.00 65 1013.8
20260506190554 11 30 0.0 3.2 0.00 0.00 0.00 65 1013.7
20260506190055 11 43 0.0 3.2 0.00 0.00 0.00 66 1013.8
20260506185552 11 9 0.0 3.2 0.00 0.00 0.00 66 1013.7
20260506185053 11 360 0.0 3.2 0.00 0.00 0.00 64 1013.7
20260506184558 11 36 0.0 3.2 0.00 0.00 0.00 65 1013.7
20260506184052 11 14 0.0 6.4 0.00 0.00 0.00 63 1013.7
20260506183549 11 5 1.6 6.4 0.00 0.00 0.00 63 1013.6
20260506183050 11 38 0.0 4.8 0.00 0.00 0.00 62 1013.7
20260506182548 11 360 1.6 4.8 0.00 0.00 0.00 62 1013.6
20260506182048 11 15 1.6 4.8 0.00 0.00 0.00 63 1013.6
20260506181550 11 30 0.0 4.8 0.00 0.00 0.00 63 1013.5
20260506181048 12 34 0.0 8.0 0.00 0.00 0.00 62 1013.5
20260506180548 12 60 1.6 8.0 0.00 0.00 0.00 62 1013.3
20260506180048 12 12 1.6 6.4 0.00 0.00 0.00 63 1013.3
20260506175548 12 24 0.0 4.8 0.00 0.00 0.00 63 1013.3
20260506175052 12 42 0.0 4.8 0.00 0.00 0.00 62 1013.1
20260506174604 12 16 1.6 4.8 0.00 0.00 0.00 61 1013.1
20260506174050 12 77 0.0 4.8 0.00 0.00 0.00 63 1013.1
20260506173547 12 50 0.0 6.4 0.00 0.00 0.00 64 1013.1
20260506173054 12 37 0.0 6.4 0.00 0.00 0.00 61 1013.0
20260506172546 12 65 0.0 6.4 0.00 0.00 0.00 61 1013.0
20260506172047 12 53 1.6 6.4 0.00 0.00 0.00 61 1013.0
20260506171546 12 46 3.2 6.4 0.00 0.00 0.00 60 1013.0
20260506171046 12 28 0.0 8.0 0.00 0.00 0.00 60 1013.0
20260506170547 12 355 0.0 8.0 0.00 0.00 0.00 60 1013.0
20260506170048 12 17 1.6 14.5 0.00 0.00 0.00 59 1013.0
20260506165545 13 9 4.8 14.5 0.00 0.00 0.00 57 1012.9
20260506165045 13 5 0.0 3.2 0.00 0.00 0.00 54 1012.8
20260506164549 13 355 1.6 4.8 0.00 0.00 0.00 54 1012.9
20260506164044 13 26 0.0 4.8 0.00 0.00 0.00 57 1012.9
20260506163544 13 355 0.0 3.2 0.00 0.00 0.00 56 1012.9
20260506163058 13 5 0.0 3.2 0.00 0.00 0.00 59 1013.0
20260506162544 12 344 0.0 6.4 0.00 0.00 0.00 60 1013.0
20260506162044 12 19 0.0 6.4 0.00 0.00 0.00 59 1013.0
20260506161545 12 5 0.0 6.4 0.00 0.00 0.00 57 1013.0
20260506161044 12 22 0.0 6.4 0.00 0.00 0.00 57 1013.0
20260506160544 12 17 1.6 4.8 0.00 0.00 0.00 59 1013.0
20260506160044 12 5 0.0 9.7 0.00 0.00 0.00 58 1013.0
20260506155543 13 11 3.2 9.7 0.00 0.00 0.00 54 1013.0
20260506155043 13 26 1.6 4.8 0.00 0.00 0.00 54 1012.9
20260506154548 14 38 0.0 8.0 0.00 0.00 0.00 56 1012.9
20260506154046 13 9 1.6 8.0 0.00 0.00 0.00 53 1013.0
20260506153543 14 346 1.6 4.8 0.00 0.00 0.00 53 1013.0
20260506153042 13 321 1.6 6.4 0.00 0.00 0.00 54 1013.0
20260506152542 14 18 1.6 9.7 0.00 0.00 0.00 54 1013.0
20260506152043 13 75 0.0 9.7 0.00 0.00 0.00 57 1012.9
20260506151543 14 355 3.2 14.5 0.00 0.00 0.00 52 1013.0
20260506151041 15 10 3.2 14.5 0.00 0.00 0.00 52 1013.0
20260506150541 15 104 3.2 8.0 0.00 0.00 0.00 53 1013.0
20260506150041 16 49 3.2 8.0 0.00 0.00 0.00 47 1012.9
20260506145541 17 20 0.0 6.4 0.00 0.00 0.00 47 1012.8
20260506145040 16 181 0.0 8.0 0.00 0.00 0.00 47 1012.9
20260506144545 16 80 3.2 8.0 0.00 0.00 0.00 46 1013.0
20260506144040 16 83 1.6 9.7 0.00 0.00 0.00 46 1012.9
20260506143540 17 21 0.0 9.7 0.00 0.00 0.00 43 1012.9
20260506143040 16 346 3.2 6.4 0.00 0.00 0.00 50 1013.0
20260506142542 15 33 3.2 6.4 0.00 0.00 0.00 49 1013.0
20260506142041 16 46 1.6 8.0 0.00 0.00 0.00 46 1012.9
20260506141540 16 5 3.2 8.0 0.00 0.00 0.00 49 1013.0
20260506141039 15 54 0.0 9.7 0.00 0.00 0.00 53 1013.0
20260506140542 14 45 1.6 9.7 0.00 0.00 0.00 49 1013.0
20260506140039 15 331 1.6 17.7 0.00 0.00 0.00 46 1013.1
20260506135539 16 16 3.2 17.7 0.00 0.00 0.00 48 1013.0
20260506135039 15 291 1.6 9.7 0.00 0.00 0.00 49 1013.0
20260506134538 15 131 0.0 12.9 0.00 0.00 0.00 50 1013.0
20260506134038 15 355 1.6 12.9 0.00 0.00 0.00 48 1013.0
20260506133538 17 27 4.8 12.9 0.00 0.00 0.00 44 1012.9
20260506133037 17 318 1.6 12.9 0.00 0.00 0.00 41 1012.9
20260506132536 17 27 3.2 12.9 0.00 0.00 0.00 42 1012.8
20260506132036 17 316 4.8 9.7 0.00 0.00 0.00 45 1012.8
20260506131538 17 30 1.6 12.9 0.00 0.00 0.00 45 1012.9
20260506131035 17 360 1.6 12.9 0.00 0.00 0.00 46 1012.9
20260506130536 16 5 4.8 12.9 0.00 0.00 0.00 47 1012.9
20260506130039 16 323 3.2 14.5 0.00 0.00 0.00 46 1013.1
20260506125534 16 61 3.2 11.3 0.00 0.00 0.00 50 1013.1
20260506125033 15 19 1.6 9.7 0.00 0.00 0.00 51 1013.1
20260506124533 15 29 1.6 9.7 0.00 0.00 0.00 50 1013.1
20260506124032 15 5 1.6 12.9 0.00 0.00 0.00 54 1013.2
20260506123532 15 40 3.2 12.9 0.00 0.00 0.00 51 1013.1
20260506123033 15 326 0.0 8.0 0.00 0.00 0.00 51 1013.2
20260506122533 16 48 3.2 8.0 0.00 0.00 0.00 50 1013.1
20260506122034 16 360 1.6 9.7 0.00 0.00 0.00 50 1013.2
20260506121531 16 355 0.0 9.7 0.00 0.00 0.00 52 1013.2
20260506121031 15 68 1.6 8.0 0.00 0.00 0.00 52 1013.2
20260506120531 16 53 1.6 8.0 0.00 0.00 0.00 52 1013.2
20260506120032 16 36 1.6 9.7 0.00 0.00 0.00 54 1013.3
20260506115532 15 360 0.0 8.0 0.00 0.00 0.00 51 1013.3
20260506115029 16 18 1.6 9.7 0.00 0.00 0.00 52 1013.3
20260506114527 15 24 3.2 9.7 0.00 0.00 0.00 47 1013.3
20260506114028 15 21 3.2 12.9 0.00 0.00 0.00 52 1013.3
20260506113527 15 53 1.6 12.9 0.00 0.00 0.00 53 1013.4
20260506113027 15 15 1.6 12.9 0.00 0.00 0.00 53 1013.4
20260506112528 15 40 1.6 12.9 0.00 0.00 0.00 54 1013.5
20260506112028 15 326 3.2 9.7 0.00 0.00 0.00 53 1013.4
20260506111528 15 46 3.2 17.7 0.00 0.00 0.00 56 1013.5
20260506111022 15 343 3.2 17.7 0.00 0.00 0.00 58 1013.6
20260506110522 15 5 3.2 12.9 0.00 0.00 0.00 54 1013.6
20260506110021 15 309 3.2 12.9 0.00 0.00 0.00 57 1013.6
20260506105521 14 355 3.2 12.9 0.00 0.00 0.00 55 1013.5
20260506105019 14 336 3.2 14.5 0.00 0.00 0.00 56 1013.6
20260506104518 13 67 1.6 14.5 0.00 0.00 0.00 55 1013.6
20260506104022 14 324 1.6 12.9 0.00 0.00 0.00 56 1013.6